QPF
0.00 0.00 0.00 0.00 0.00 0.00 0.00 0.00 0.00 0.00 0.00 0.00 0.00 0.00 0.00 0.00 0.00 0.00 0.00 0.00 0.00 0.00 0.00 0.00 0.00 0.00 0.00 0.00 0.00 0.00 0.00 0.00 0.00 0.00 0.00 0.00 0.00 0.00 0.00 0.00 0.00 0.00 0.00 0.00
0.00 0.00 0.00 0.00 0.00 0.00 0.00 0.00 0.00 0.00 0.00 0.00 0.00 0.00 0.00 0.00 0.00 0.00 0.00 0.00 0.00 0.00 0.00 0.00 0.00 0.00 0.00 0.00 0.00 0.00 0.00 0.00 0.00 0.00 0.00 0.00 0.00 0.00 0.00 0.00 0.00 0.00 0.00 0.00
0.00 0.00 0.00 0.00 0.00 0.00 0.00 0.00 0.00 0.00 0.00 0.00 0.00 0.00 0.00 0.00 0.00 0.00 0.00 0.00 0.00 0.00 0.00 0.00 0.00 0.00 0.00 0.00 0.00 0.00 0.00 0.00 0.00 0.00 0.00 0.00 0.00 0.00 0.00 0.00 0.00 0.00 0.00 0.00
0.00 0.00 0.00 0.00 0.00 0.00 0.00 0.00 0.00 0.00 0.00 0.00 0.00 0.00 0.00 0.00 0.00 0.00 0.00 0.00 0.00 0.00 0.00 0.00 0.00 0.00 0.00 0.00 0.00 0.00 0.00 0.00 0.00 0.00 0.00 0.00 0.00 0.00 0.00 0.00 0.00 0.00 0.00 0.00
0.00 0.00 0.00 0.00 0.00 0.00 0.00 0.00 0.00 0.00 0.00 0.00 0.00 0.00 0.00 0.00 0.00 0.00 0.00 0.00 0.00 0.00 0.00 0.00 0.00 0.00 0.00 0.00 0.00 0.00 0.00 0.00 0.00 0.00 0.00 0.00 0.00 0.00 0.00 0.00 0.00 0.00 0.00 0.00
0.00 0.00 0.00 0.00 0.00 0.00 0.00 0.00 0.00 0.00 0.00 0.00 0.00 0.00 0.00 0.00 0.00 0.00 0.00 0.00 0.00 0.00 0.00 0.00 0.00 0.00 0.00 0.00 0.00 0.00 0.00 0.00 0.00 0.00 0.00 0.00 0.00 0.00 0.00 0.00 0.00 0.00 0.00 0.00
0.00 0.00 0.00 0.00 0.00 0.00 0.00 0.00 0.00 0.00 0.00 0.00 0.00 0.00 0.00 0.00 0.00 0.00 0.00 0.00 0.00 0.00 0.00 0.00 0.00 0.00 0.00 0.00 0.00 0.00 0.00 0.00 0.00 0.00 0.00 0.00 0.00 0.00 0.00 0.00 0.00 0.00 0.00 0.00
0.00 0.00 0.00 0.00 0.00 0.00 0.00 0.00 0.00 0.00 0.00 0.00 0.00 0.00 0.00 0.00 0.00 0.00 0.00 0.00 0.00 0.00 0.00 0.00 0.00 0.00 0.00 0.00 0.00 0.00 0.00 0.00 0.00 0.00 0.00 0.00 0.00 0.00 0.00 0.00 0.00 0.00 0.00 0.00
0.00 0.00 0.00 0.00 0.00 0.00 0.00 0.00 0.00 0.00 0.00 0.00 0.00 0.00 0.00 0.00 0.00 0.00 0.00 0.00 0.00 0.00 0.00 0.00 0.00 0.00 0.00 0.00 0.00 0.00 0.00 0.00 0.00 0.00 0.00 0.00 0.00 0.00 0.00 0.00 0.00 0.00 0.00 0.00
0.00 0.00 0.00 0.00 0.00 0.00 0.00 0.00 0.00 0.00 0.00 0.00 0.00 0.00 0.00 0.00 0.00 0.00 0.00 0.00 0.00 0.00 0.00 0.00 0.00 0.00 0.00 0.00 0.00 0.00 0.00 0.00 0.00 0.00 0.00 0.00 0.00 0.00 0.00 0.00 0.00 0.00 0.00 0.00
0.00 0.00 0.00 0.00 0.00 0.00 0.00 0.00 0.00 0.00 0.00 0.00 0.00 0.00 0.00 0.00 0.00 0.00 0.00 0.00 0.00 0.00 0.00 0.00 0.00 0.00 0.00 0.00 0.00 0.00 0.00 0.00 0.00 0.00 0.00 0.00 0.00 0.00 0.00 0.00 0.00 0.00 0.00 0.00
0.00 0.00 0.00 0.00 0.00 0.00 0.00 0.00 0.00 0.00 0.00 0.00 0.00 0.00 0.00 0.00 0.00 0.00 0.00 0.00 0.00 0.00 0.00 0.00 0.00 0.00 0.00 0.00 0.00 0.00 0.00 0.00 0.00 0.00 0.00 0.00 0.00 0.00 0.00 0.00 0.00 0.00 0.00 0.00
0.00 0.00 0.00 0.00 0.00 0.00 0.00 0.00 0.00 0.00 0.00 0.00 0.00 0.00 0.00 0.00 0.00 0.00 0.00 0.00 0.00 0.00 0.00 0.00 0.00 0.00 0.00 0.00 0.00 0.00 0.00 0.00 0.00 0.00 0.00 0.00 0.00 0.00 0.00 0.00 0.00 0.00 0.00 0.00
0.00 0.00 0.00 0.00 0.00 0.00 0.00 0.00 0.00 0.00 0.00 0.00 0.00 0.00 0.00 0.00 0.00 0.00 0.00 0.00 0.00 0.00 0.00 0.00 0.00 0.00 0.00 0.00 0.00 0.00 0.00 0.00 0.00 0.00 0.00 0.00 0.00 0.00 0.00 0.00 0.00 0.00 0.00 0.00
0.00 0.00 0.00 0.00 0.00 0.00 0.00 0.00 0.00 0.00 0.00 0.00 0.00 0.00 0.00 0.00 0.00 0.00 0.00 0.00 0.00 0.00 0.00 0.00 0.00 0.00 0.00 0.00 0.00 0.00 0.00 0.00 0.00 0.00 0.00 0.00 0.00 0.00 0.00 0.00 0.00 0.00 0.00 0.00
0.00 0.00 0.00 0.00 0.00 0.00 0.00 0.00 0.00 0.00 0.00 0.00 0.00 0.00 0.00 0.00 0.00 0.00 0.00 0.00 0.00 0.00 0.00 0.00 0.00 0.00 0.00 0.00 0.00 0.00 0.00 0.00 0.00 0.00 0.00 0.00 0.00 0.00 0.00 0.00 0.00 0.00 0.00 0.00
0.00 0.00 0.00 0.00 0.00 0.00 0.00 0.00 0.00 0.00 0.00 0.00 0.00 0.00 0.00 0.00 0.00 0.00 0.00 0.00 0.00 0.00 0.00 0.00 0.00 0.00 0.00 0.00 0.00 0.00 0.00 0.00 0.00 0.00 0.00 0.00 0.00 0.00 0.00 0.00 0.00 0.00 0.00 0.00
0.00 0.00 0.00 0.00 0.00 0.00 0.00 0.00 0.00 0.00 0.00 0.00 0.00 0.00 0.00 0.00 0.00 0.00 0.00 0.00 0.00 0.00 0.00 0.00 0.00 0.00 0.00 0.00 0.00 0.00 0.00 0.00 0.00 0.00 0.00 0.00 0.00 0.00 0.00 0.00 0.00 0.00 0.00 0.00
0.00 0.00 0.00 0.00 0.00 0.00 0.00 0.00 0.00 0.00 0.00 0.00 0.00 0.00 0.00 0.00 0.00 0.00 0.00 0.00 0.00 0.00 0.00 0.00 0.00 0.00 0.00 0.00 0.00 0.00 0.00 0.00 0.00 0.00 0.00 0.00 0.00 0.00 0.00 0.00 0.00 0.00 0.00 0.00
0.00 0.00 0.00 0.00 0.00 0.00 0.00 0.00 0.00 0.00 0.00 0.00 0.00 0.00 0.00 0.00 0.00 0.00 0.00 0.00 0.00 0.00 0.00 0.00 0.00 0.00 0.00 0.00 0.00 0.00 0.00 0.00 0.00 0.00 0.00 0.00 0.00 0.00 0.00 0.00 0.00 0.00 0.00 0.00
0.00 0.00 0.00 0.00 0.00 0.00 0.00 0.00 0.00 0.00 0.00 0.00 0.00 0.00 0.00 0.00 0.00 0.00 0.00 0.00 0.00 0.00 0.00 0.00 0.00 0.00 0.00 0.00 0.00 0.00 0.00 0.00 0.00 0.00 0.00 0.00 0.00 0.00 0.00 0.00 0.00 0.00 0.00 0.00
0.00 0.00 0.00 0.00 0.00 0.00 0.00 0.00 0.00 0.00 0.00 0.00 0.00 0.00 0.00 0.00 0.00 0.00 0.00 0.00 0.00 0.00 0.00 0.00 0.00 0.00 0.00 0.00 0.00 0.00 0.00 0.00 0.00 0.00 0.00 0.00 0.00 0.00 0.00 0.00 0.00 0.00 0.00 0.00
0.00 0.00 0.00 0.00 0.00 0.00 0.00 0.00 0.00 0.00 0.00 0.00 0.00 0.00 0.00 0.00 0.00 0.00 0.00 0.00 0.00 0.00 0.00 0.00 0.00 0.00 0.00 0.00 0.00 0.00 0.00 0.00 0.00 0.00 0.00 0.00 0.00 0.00 0.00 0.00 0.00 0.00 0.00 0.00
0.00 0.00 0.00 0.00 0.00 0.00 0.00 0.00 0.00 0.00 0.00 0.00 0.00 0.00 0.00 0.00 0.00 0.00 0.00 0.00 0.00 0.00 0.00 0.00 0.00 0.00 0.00 0.00 0.00 0.00 0.00 0.00 0.00 0.00 0.00 0.00 0.00 0.00 0.00 0.00 0.00 0.00 0.00 0.00
0.00 0.00 0.00 0.00 0.00 0.00 0.00 0.00 0.00 0.00 0.00 0.00 0.00 0.00 0.00 0.00 0.00 0.00 0.00 0.00 0.00 0.00 0.00 0.00 0.00 0.00 0.00 0.00 0.00 0.00 0.00 0.00 0.00 0.00 0.00 0.00 0.00 0.00 0.00 0.00 0.00 0.00 0.00 0.00
0.00 0.00 0.00 0.00 0.00 0.00 0.00 0.00 0.00 0.00 0.00 0.00 0.00 0.00 0.00 0.00 0.00 0.00 0.00 0.00 0.00 0.00 0.00 0.00 0.00 0.00 0.00 0.00 0.00 0.00 0.00 0.00 0.00 0.00 0.00 0.00 0.00 0.00 0.00 0.00 0.00 0.00 0.00 0.00
MSLP
1015.19 1015.72 1016.10 1016.36 1016.50 1016.54 1016.53 1016.46 1016.34 1016.18 1015.95 1015.66 1015.34 1015.00 1014.69 1014.46 1014.36 1014.40 1014.58 1014.88 1015.23 1015.59 1015.89 1016.10 1016.19 1016.20 1016.15 1016.10 1016.10 1016.21 1016.45 1016.81 1017.26 1017.76 1018.25 1018.68 1019.03 1019.29 1019.46 1019.56 1019.63 1019.69 1019.78 1019.90
1015.11 1015.54 1015.86 1016.11 1016.28 1016.42 1016.51 1016.57 1016.56 1016.47 1016.29 1016.00 1015.64 1015.24 1014.86 1014.58 1014.43 1014.47 1014.68 1015.03 1015.46 1015.90 1016.29 1016.55 1016.69 1016.70 1016.64 1016.56 1016.53 1016.60 1016.81 1017.14 1017.57 1018.04 1018.51 1018.91 1019.22 1019.42 1019.52 1019.56 1019.56 1019.57 1019.61 1019.69
1014.89 1015.22 1015.49 1015.73 1015.96 1016.20 1016.43 1016.62 1016.74 1016.74 1016.59 1016.30 1015.88 1015.41 1014.94 1014.58 1014.38 1014.39 1014.60 1014.99 1015.49 1016.01 1016.47 1016.81 1017.00 1017.06 1017.01 1016.94 1016.91 1016.96 1017.15 1017.47 1017.88 1018.33 1018.77 1019.13 1019.39 1019.54 1019.57 1019.54 1019.49 1019.44 1019.43 1019.48
1014.61 1014.83 1015.06 1015.31 1015.62 1015.96 1016.32 1016.65 1016.87 1016.94 1016.82 1016.50 1016.02 1015.46 1014.89 1014.44 1014.17 1014.14 1014.35 1014.76 1015.32 1015.91 1016.45 1016.87 1017.13 1017.25 1017.25 1017.21 1017.20 1017.26 1017.45 1017.76 1018.14 1018.57 1018.97 1019.29 1019.50 1019.59 1019.57 1019.48 1019.38 1019.29 1019.24 1019.26
1014.34 1014.48 1014.66 1014.93 1015.30 1015.74 1016.22 1016.65 1016.96 1017.07 1016.95 1016.59 1016.04 1015.38 1014.71 1014.16 1013.82 1013.74 1013.94 1014.38 1014.97 1015.63 1016.26 1016.76 1017.11 1017.30 1017.37 1017.38 1017.40 1017.49 1017.68 1017.97 1018.33 1018.72 1019.08 1019.35 1019.51 1019.55 1019.48 1019.36 1019.22 1019.10 1019.03 1019.02
1014.10 1014.18 1014.34 1014.63 1015.06 1015.58 1016.14 1016.65 1017.00 1017.13 1016.99 1016.57 1015.94 1015.19 1014.43 1013.79 1013.39 1013.27 1013.46 1013.91 1014.54 1015.26 1015.95 1016.54 1016.97 1017.24 1017.39 1017.46 1017.52 1017.62 1017.82 1018.09 1018.42 1018.77 1019.07 1019.30 1019.41 1019.42 1019.33 1019.18 1019.03 1018.90 1018.82 1018.80
1013.88 1013.93 1014.09 1014.41 1014.88 1015.46 1016.08 1016.62 1016.99 1017.11 1016.92 1016.45 1015.75 1014.92 1014.09 1013.40 1012.94 1012.80 1012.98 1013.44 1014.11 1014.87 1015.62 1016.28 1016.78 1017.13 1017.34 1017.47 1017.56 1017.69 1017.88 1018.13 1018.42 1018.72 1018.98 1019.17 1019.25 1019.23 1019.13 1018.99 1018.85 1018.73 1018.65 1018.62
1013.63 1013.69 1013.87 1014.23 1014.74 1015.35 1015.99 1016.54 1016.90 1016.99 1016.76 1016.24 1015.49 1014.62 1013.75 1013.03 1012.56 1012.41 1012.59 1013.06 1013.74 1014.53 1015.32 1016.02 1016.59 1016.99 1017.26 1017.43 1017.56 1017.70 1017.89 1018.11 1018.37 1018.63 1018.85 1019.00 1019.07 1019.05 1018.96 1018.84 1018.71 1018.61 1018.54 1018.50
1013.30 1013.39 1013.62 1014.02 1014.56 1015.20 1015.84 1016.37 1016.70 1016.76 1016.50 1015.95 1015.18 1014.30 1013.44 1012.73 1012.27 1012.13 1012.31 1012.79 1013.47 1014.27 1015.08 1015.81 1016.40 1016.85 1017.16 1017.38 1017.54 1017.70 1017.87 1018.09 1018.32 1018.55 1018.74 1018.87 1018.93 1018.92 1018.86 1018.76 1018.66 1018.57 1018.50 1018.45
1012.85 1013.00 1013.29 1013.74 1014.31 1014.95 1015.58 1016.09 1016.38 1016.40 1016.13 1015.58 1014.83 1013.98 1013.16 1012.50 1012.08 1011.97 1012.17 1012.64 1013.32 1014.10 1014.90 1015.63 1016.24 1016.72 1017.06 1017.31 1017.51 1017.69 1017.88 1018.09 1018.31 1018.52 1018.70 1018.83 1018.89 1018.89 1018.84 1018.77 1018.68 1018.60 1018.52 1018.44
1012.30 1012.53 1012.89 1013.38 1013.97 1014.60 1015.20 1015.67 1015.93 1015.92 1015.64 1015.11 1014.41 1013.64 1012.90 1012.32 1011.97 1011.90 1012.12 1012.59 1013.25 1014.00 1014.77 1015.49 1016.10 1016.59 1016.97 1017.26 1017.50 1017.72 1017.94 1018.16 1018.38 1018.59 1018.76 1018.89 1018.95 1018.96 1018.92 1018.85 1018.76 1018.66 1018.55 1018.42
1011.76 1012.05 1012.46 1012.98 1013.57 1014.18 1014.73 1015.14 1015.35 1015.31 1015.04 1014.55 1013.93 1013.25 1012.62 1012.14 1011.87 1011.86 1012.11 1012.58 1013.21 1013.93 1014.67 1015.36 1015.97 1016.48 1016.90 1017.24 1017.53 1017.80 1018.05 1018.30 1018.54 1018.75 1018.92 1019.03 1019.09 1019.09 1019.04 1018.95 1018.83 1018.69 1018.53 1018.34
1011.32 1011.66 1012.10 1012.62 1013.17 1013.72 1014.20 1014.53 1014.67 1014.61 1014.34 1013.90 1013.35 1012.78 1012.28 1011.92 1011.75 1011.81 1012.10 1012.57 1013.18 1013.87 1014.58 1015.26 1015.87 1016.40 1016.86 1017.25 1017.60 1017.92 1018.22 1018.50 1018.74 1018.95 1019.11 1019.21 1019.24 1019.21 1019.12 1018.99 1018.82 1018.62 1018.40 1018.13
1011.10 1011.46 1011.89 1012.37 1012.86 1013.30 1013.67 1013.90 1013.95 1013.83 1013.56 1013.16 1012.70 1012.24 1011.86 1011.63 1011.57 1011.72 1012.05 1012.54 1013.15 1013.82 1014.51 1015.18 1015.80 1016.35 1016.85 1017.30 1017.70 1018.07 1018.40 1018.70 1018.96 1019.15 1019.28 1019.34 1019.33 1019.24 1019.10 1018.91 1018.68 1018.42 1018.12 1017.79
1011.16 1011.51 1011.89 1012.28 1012.66 1012.97 1013.19 1013.28 1013.22 1013.04 1012.74 1012.37 1011.98 1011.63 1011.38 1011.28 1011.34 1011.58 1011.98 1012.51 1013.13 1013.80 1014.49 1015.16 1015.78 1016.37 1016.90 1017.38 1017.82 1018.22 1018.58 1018.88 1019.11 1019.28 1019.36 1019.36 1019.29 1019.14 1018.93 1018.68 1018.38 1018.06 1017.70 1017.32
1011.47 1011.77 1012.08 1012.36 1012.58 1012.73 1012.78 1012.70 1012.52 1012.25 1011.92 1011.57 1011.25 1011.00 1010.88 1010.91 1011.10 1011.44 1011.92 1012.50 1013.15 1013.84 1014.54 1015.21 1015.85 1016.44 1016.99 1017.49 1017.94 1018.34 1018.68 1018.96 1019.15 1019.26 1019.28 1019.22 1019.08 1018.87 1018.60 1018.29 1017.94 1017.58 1017.18 1016.78
1011.93 1012.17 1012.37 1012.52 1012.58 1012.55 1012.42 1012.18 1011.87 1011.51 1011.14 1010.81 1010.55 1010.41 1010.41 1010.57 1010.89 1011.34 1011.91 1012.56 1013.26 1013.97 1014.68 1015.35 1015.99 1016.58 1017.11 1017.60 1018.03 1018.39 1018.69 1018.90 1019.04 1019.08 1019.03 1018.90 1018.70 1018.44 1018.13 1017.78 1017.41 1017.02 1016.62 1016.21
1012.36 1012.54 1012.64 1012.65 1012.56 1012.37 1012.07 1011.69 1011.27 1010.84 1010.46 1010.15 1009.96 1009.92 1010.05 1010.34 1010.78 1011.34 1012.01 1012.72 1013.47 1014.20 1014.92 1015.58 1016.19 1016.75 1017.25 1017.68 1018.05 1018.34 1018.56 1018.70 1018.75 1018.72 1018.61 1018.42 1018.18 1017.89 1017.56 1017.21 1016.84 1016.46 1016.08 1015.69
1012.59 1012.71 1012.73 1012.63 1012.42 1012.10 1011.68 1011.21 1010.73 1010.27 1009.90 1009.64 1009.54 1009.60 1009.85 1010.26 1010.82 1011.49 1012.23 1013.00 1013.78 1014.53 1015.23 1015.87 1016.44 1016.93 1017.36 1017.71 1017.98 1018.18 1018.30 1018.35 1018.31 1018.21 1018.04 1017.82 1017.56 1017.26 1016.95 1016.62 1016.29 1015.94 1015.59 1015.22
1012.48 1012.56 1012.52 1012.36 1012.08 1011.69 1011.23 1010.73 1010.24 1009.81 1009.49 1009.31 1009.30 1009.48 1009.84 1010.37 1011.02 1011.77 1012.57 1013.39 1014.18 1014.92 1015.58 1016.17 1016.67 1017.08 1017.41 1017.65 1017.82 1017.91 1017.92 1017.87 1017.76 1017.60 1017.39 1017.15 1016.90 1016.63 1016.35 1016.06 1015.77 1015.47 1015.14 1014.80
1011.99 1012.06 1012.00 1011.82 1011.53 1011.14 1010.70 1010.24 1009.81 1009.47 1009.24 1009.17 1009.28 1009.57 1010.03 1010.65 1011.38 1012.18 1013.00 1013.82 1014.60 1015.30 1015.92 1016.43 1016.84 1017.16 1017.38 1017.51 1017.56 1017.54 1017.46 1017.32 1017.14 1016.94 1016.71 1016.47 1016.23 1016.00 1015.76 1015.53 1015.28 1015.01 1014.72 1014.39
1011.18 1011.25 1011.20 1011.06 1010.81 1010.50 1010.14 1009.79 1009.48 1009.26 1009.17 1009.23 1009.46 1009.85 1010.39 1011.07 1011.83 1012.65 1013.47 1014.26 1014.99 1015.63 1016.17 1016.60 1016.92 1017.14 1017.25 1017.28 1017.22 1017.11 1016.94 1016.74 1016.51 1016.27 1016.03 1015.80 1015.59 1015.38 1015.19 1014.99 1014.78 1014.54 1014.26 1013.92
1010.20 1010.27 1010.27 1010.18 1010.03 1009.83 1009.61 1009.41 1009.26 1009.20 1009.26 1009.46 1009.79 1010.27 1010.87 1011.57 1012.34 1013.12 1013.90 1014.63 1015.29 1015.86 1016.32 1016.66 1016.89 1017.01 1017.03 1016.97 1016.84 1016.65 1016.41 1016.16 1015.89 1015.63 1015.38 1015.16 1014.96 1014.78 1014.61 1014.43 1014.23 1014.00 1013.71 1013.35
1009.23 1009.32 1009.36 1009.35 1009.31 1009.25 1009.19 1009.16 1009.19 1009.29 1009.50 1009.82 1010.25 1010.78 1011.41 1012.10 1012.83 1013.56 1014.26 1014.91 1015.48 1015.96 1016.33 1016.59 1016.74 1016.79 1016.74 1016.62 1016.42 1016.18 1015.90 1015.61 1015.32 1015.04 1014.78 1014.55 1014.35 1014.17 1013.99 1013.81 1013.60 1013.35 1013.04 1012.66
1008.45 1008.54 1008.63 1008.70 1008.77 1008.85 1008.95 1009.08 1009.27 1009.53 1009.86 1010.27 1010.76 1011.33 1011.94 1012.60 1013.26 1013.91 1014.52 1015.07 1015.55 1015.94 1016.22 1016.41 1016.50 1016.49 1016.40 1016.23 1016.01 1015.73 1015.43 1015.11 1014.80 1014.49 1014.22 1013.96 1013.74 1013.53 1013.33 1013.12 1012.88 1012.60 1012.27 1011.87
1007.99 1008.09 1008.20 1008.34 1008.50 1008.69 1008.92 1009.19 1009.50 1009.87 1010.30 1010.78 1011.30 1011.86 1012.45 1013.04 1013.62 1014.18 1014.69 1015.14 1015.51 1015.82 1016.03 1016.15 1016.19 1016.15 1016.03 1015.84 1015.60 1015.31 1014.99 1014.66 1014.32 1013.99 1013.67 1013.38 1013.11 1012.86 1012.61 1012.36 1012.09 1011.78 1011.42 1011.00
Thickness
5670 5662 5661 5669 5677 5679 5677 5673 5672 5683 5693 5688 5683 5687 5697 5702 5699 5696 5694 5691 5686 5683 5684 5684 5684 5683 5680 5677 5673 5669 5664 5660 5656 5650 5645 5639 5635 5631 5628 5624 5621 5619 5616 5613
5658 5656 5670 5678 5678 5674 5668 5662 5666 5679 5688 5683 5679 5684 5696 5699 5695 5694 5691 5686 5681 5677 5676 5675 5675 5673 5670 5668 5665 5661 5657 5653 5649 5643 5638 5634 5629 5625 5622 5618 5616 5613 5610 5608
5652 5665 5673 5670 5666 5661 5660 5658 5662 5668 5678 5679 5672 5673 5686 5693 5694 5692 5689 5685 5680 5675 5670 5668 5666 5663 5660 5658 5656 5653 5649 5645 5641 5636 5631 5626 5622 5618 5615 5612 5609 5607 5605 5602
5656 5668 5665 5660 5658 5658 5652 5668 5668 5664 5656 5657 5665 5652 5678 5682 5680 5680 5679 5677 5673 5670 5666 5662 5658 5654 5651 5649 5647 5644 5641 5637 5633 5628 5623 5619 5614 5610 5608 5606 5604 5602 5599 5596
5654 5661 5655 5651 5657 5659 5658 5662 5660 5657 5650 5646 5659 5650 5669 5677 5670 5671 5672 5671 5668 5664 5660 5655 5651 5648 5644 5641 5639 5635 5632 5628 5625 5621 5617 5613 5608 5605 5602 5600 5597 5594 5592 5590
5653 5661 5658 5656 5659 5658 5657 5652 5650 5647 5639 5631 5658 5650 5661 5672 5676 5672 5671 5668 5664 5659 5654 5649 5645 5641 5637 5634 5631 5628 5624 5620 5617 5613 5609 5605 5601 5597 5594 5591 5588 5585 5583 5581
5638 5647 5653 5655 5644 5645 5645 5634 5626 5623 5618 5631 5670 5661 5667 5687 5688 5681 5673 5666 5660 5654 5648 5643 5638 5634 5630 5627 5624 5620 5616 5612 5609 5605 5601 5597 5593 5589 5585 5582 5578 5575 5573 5570
5627 5633 5647 5648 5644 5638 5635 5635 5625 5625 5631 5645 5651 5651 5669 5683 5684 5684 5676 5666 5658 5650 5644 5638 5634 5629 5625 5621 5617 5613 5609 5605 5601 5597 5593 5589 5585 5581 5577 5574 5570 5566 5563 5561
5633 5633 5649 5650 5649 5644 5636 5633 5644 5632 5636 5634 5647 5662 5663 5675 5671 5671 5666 5659 5652 5646 5640 5634 5629 5624 5619 5615 5611 5606 5601 5597 5593 5588 5584 5580 5576 5572 5568 5565 5561 5558 5555 5552
5638 5630 5630 5633 5638 5637 5638 5642 5631 5622 5618 5618 5645 5653 5652 5654 5656 5658 5656 5651 5647 5642 5636 5630 5625 5619 5614 5609 5603 5598 5593 5588 5584 5579 5575 5571 5567 5563 5559 5555 5552 5549 5546 5542
5634 5624 5617 5619 5622 5626 5627 5630 5632 5630 5632 5621 5624 5643 5663 5661 5659 5654 5651 5648 5643 5637 5631 5625 5619 5613 5607 5600 5594 5589 5584 5579 5574 5569 5565 5560 5556 5553 5549 5545 5542 5539 5535 5532
5630 5624 5617 5621 5634 5637 5634 5632 5628 5618 5624 5628 5620 5633 5663 5662 5660 5655 5649 5645 5640 5633 5626 5619 5612 5605 5598 5591 5585 5579 5574 5569 5564 5559 5554 5550 5546 5542 5538 5534 5531 5528 5524 5521
5625 5618 5610 5608 5613 5620 5625 5631 5633 5630 5623 5618 5613 5628 5650 5652 5651 5650 5644 5639 5633 5626 5619 5612 5604 5597 5589 5583 5576 5570 5565 5559 5554 5548 5543 5538 5534 5531 5527 5523 5520 5516 5512 5509
5626 5618 5615 5614 5618 5620 5619 5625 5628 5622 5611 5613 5621 5632 5635 5639 5639 5639 5636 5631 5624 5618 5611 5603 5594 5587 5580 5573 5567 5560 5554 5549 5543 5537 5532 5527 5523 5519 5516 5512 5508 5504 5501 5497
5615 5610 5619 5624 5628 5628 5626 5624 5622 5618 5619 5614 5625 5631 5639 5638 5635 5633 5629 5623 5616 5608 5601 5593 5585 5577 5570 5562 5556 5549 5543 5537 5532 5526 5521 5516 5512 5509 5504 5500 5497 5493 5489 5485
5607 5605 5612 5613 5620 5619 5616 5621 5621 5619 5620 5620 5622 5627 5641 5639 5635 5628 5622 5616 5607 5599 5592 5584 5576 5567 5559 5552 5545 5538 5532 5526 5520 5515 5509 5505 5501 5497 5493 5489 5485 5481 5477 5473
5599 5599 5598 5595 5608 5605 5598 5616 5618 5619 5624 5621 5615 5624 5631 5626 5624 5619 5614 5607 5599 5591 5582 5573 5564 5556 5549 5541 5534 5527 5521 5515 5509 5503 5499 5494 5490 5486 5482 5478 5474 5469 5465 5461
5597 5593 5589 5585 5590 5573 5609 5630 5629 5624 5625 5626 5624 5624 5622 5618 5613 5610 5606 5598 5588 5581 5571 5562 5553 5544 5537 5530 5523 5516 5509 5503 5498 5492 5488 5484 5480 5475 5471 5467 5463 5458 5453 5449
5591 5589 5580 5572 5573 5586 5610 5618 5618 5614 5614 5625 5620 5617 5609 5602 5596 5592 5592 5587 5578 5569 5560 5550 5541 5533 5525 5518 5511 5504 5498 5492 5487 5482 5478 5474 5470 5465 5461 5456 5451 5447 5441 5436
5577 5580 5574 5567 5564 5568 5602 5609 5614 5609 5598 5616 5614 5606 5595 5587 5573 5576 5577 5571 5563 5555 5546 5537 5529 5521 5513 5507 5501 5493 5487 5482 5477 5474 5470 5466 5460 5455 5450 5445 5440 5435 5429 5424
5563 5564 5563 5562 5560 5574 5600 5598 5599 5582 5590 5601 5601 5595 5585 5576 5571 5569 5564 5556 5548 5540 5532 5524 5516 5508 5501 5496 5489 5482 5477 5472 5469 5466 5461 5455 5450 5444 5439 5435 5429 5423 5417 5412
5565 5560 5559 5560 5555 5568 5588 5585 5583 5586 5590 5590 5587 5583 5575 5565 5559 5554 5548 5539 5532 5525 5518 5511 5502 5496 5490 5484 5478 5472 5467 5464 5460 5456 5450 5445 5439 5434 5429 5422 5417 5410 5403 5397
5573 5575 5574 5573 5575 5587 5586 5585 5584 5583 5580 5578 5573 5570 5562 5551 5544 5539 5532 5525 5518 5512 5504 5498 5490 5484 5478 5473 5467 5461 5458 5454 5449 5444 5439 5434 5429 5423 5417 5410 5404 5397 5389 5381
5573 5577 5575 5574 5578 5579 5578 5578 5575 5573 5570 5567 5563 5557 5549 5540 5532 5525 5518 5511 5505 5499 5492 5485 5478 5471 5466 5461 5457 5452 5448 5443 5438 5433 5428 5422 5416 5411 5405 5398 5390 5382 5374 5366
5571 5564 5564 5565 5571 5568 5568 5567 5565 5561 5558 5554 5549 5544 5538 5529 5521 5513 5506 5499 5492 5486 5479 5473 5465 5459 5455 5450 5446 5442 5437 5432 5426 5421 5416 5410 5404 5398 5393 5386 5378 5370 5363 5352
5564 5559 5556 5558 5565 5560 5560 5560 5556 5549 5544 5539 5534 5528 5524 5517 5509 5502 5494 5487 5480 5473 5466 5459 5453 5448 5444 5440 5436 5431 5426 5420 5415 5409 5404 5397 5391 5385 5378 5372 5369 5363 5353 5347